Location: Newark
(47.5833°N, 8.1500°E)
Time: 18:21:45
(UTC+00:00)

Transit 2A - Pass Details

Date: 01 November 2020
Orbit: 595 x 964 km, 66.7° (Epoch: 29 November)

Event Time Altitude Azimuth Distance (km) Brightness Sun altitude
Rises 09:46:14 0° 312° (NW) 3,383 8.8 25.0°
Reaches altitude 10° 09:49:48 10° 291° (WNW) 2,361 8.2 25.2°
Maximum altitude 09:52:43 15° 258° (WSW) 1,964 8.2 25.4°
Drops below altitude 10° 09:55:30 10° 224° (SW) 2,214 8.8 25.5°
Sets 09:58:42 0° 201° (SSW) 3,051 9.8 25.7°
